TimeCST,TemperatureF,Dew PointF,Humidity,Sea Level PressureIn,VisibilityMPH,Wind Direction,Wind SpeedMPH,Gust SpeedMPH,PrecipitationIn,Events,Conditions,WindDirDegrees,DateUTC
12:52 AM,23.0,17.1,78,30.01,10.0,NW,5.8,-,N/A,,Overcast,320,2012-12-24 06:52:00
1:52 AM,23.0,18.0,81,29.99,10.0,NW,5.8,-,N/A,,Overcast,320,2012-12-24 07:52:00
2:52 AM,24.1,19.0,81,29.96,10.0,NNW,3.5,-,N/A,,Overcast,330,2012-12-24 08:52:00
3:52 AM,26.1,19.9,78,29.96,10.0,Variable,3.5,-,N/A,,Overcast,0,2012-12-24 09:52:00
4:52 AM,26.1,21.0,81,29.96,10.0,WNW,6.9,-,N/A,,Overcast,300,2012-12-24 10:52:00
5:52 AM,26.1,21.0,81,29.95,10.0,NNW,5.8,-,N/A,,Overcast,330,2012-12-24 11:52:00
6:52 AM,26.1,21.0,81,29.96,10.0,NW,8.1,-,N/A,,Overcast,310,2012-12-24 12:52:00
7:52 AM,30.0,24.1,79,29.95,10.0,NNE,6.9,-,N/A,,Overcast,20,2012-12-24 13:52:00
8:52 AM,27.0,21.9,81,29.96,10.0,NW,11.5,-,N/A,,Overcast,320,2012-12-24 14:52:00
9:52 AM,28.0,23.0,81,29.96,10.0,North,8.1,-,N/A,,Overcast,350,2012-12-24 15:52:00
10:52 AM,28.0,23.0,81,29.95,9.0,NW,6.9,-,0.00,Snow,Light Snow,320,2012-12-24 16:52:00
11:52 AM,28.0,23.0,81,29.94,10.0,NW,6.9,-,N/A,,Overcast,320,2012-12-24 17:52:00
12:52 PM,28.0,21.9,78,29.94,10.0,NNW,8.1,-,N/A,,Overcast,330,2012-12-24 18:52:00
1:52 PM,28.0,23.0,81,29.94,10.0,NNW,8.1,-,N/A,,Overcast,330,2012-12-24 19:52:00
2:41 PM,28.4,23.0,80,29.91,10.0,NNW,8.1,-,N/A,,Overcast,330,2012-12-24 20:41:00
2:52 PM,28.0,23.0,81,29.96,10.0,NNW,10.4,-,N/A,,Overcast,340,2012-12-24 20:52:00
3:13 PM,28.4,23.0,80,29.92,10.0,NNW,8.1,-,N/A,,Overcast,330,2012-12-24 21:13:00
3:52 PM,28.0,23.0,81,29.96,10.0,NNW,8.1,-,N/A,,Overcast,340,2012-12-24 21:52:00
4:52 PM,28.0,23.0,81,29.99,10.0,NNW,9.2,-,N/A,,Overcast,330,2012-12-24 22:52:00
5:52 PM,27.0,21.9,81,30.03,9.0,NW,11.5,-,0.00,Snow,Light Snow,310,2012-12-24 23:52:00
6:52 PM,26.1,19.9,78,30.06,9.0,NW,11.5,-,0.00,Snow,Light Snow,310,2012-12-25 00:52:00
7:52 PM,25.0,19.0,78,30.07,9.0,NW,8.1,-,0.00,,Overcast,320,2012-12-25 01:52:00
8:52 PM,25.0,18.0,75,30.10,10.0,NNW,9.2,-,N/A,,Overcast,330,2012-12-25 02:52:00
9:52 PM,24.1,18.0,77,30.12,10.0,NW,10.4,-,N/A,,Overcast,320,2012-12-25 03:52:00
10:52 PM,24.1,18.0,77,30.13,10.0,NNW,9.2,-,N/A,,Overcast,340,2012-12-25 04:52:00
11:52 PM,24.1,18.0,77,30.13,10.0,NNW,9.2,-,N/A,,Mostly Cloudy,340,2012-12-25 05:52:00